Hourly Data Report for September 13, 2017

All times are specified in Local Standard Time (LST). Add 1 hour to adjust for Daylight Saving Time where and when it is observed.

PETAWAWA AWOS 2
ONTARIO

45°57'00.000" N
77°19'00.000" W
130.10 m
6106396
71625
YWA

Download Data

Hourly Data (September 2017)
Hourly Data Report for September 13, 2017
Temp Definition
°C
Dew Point Temp Definition
°C
Rel Hum Definition
%
Wind Dir Definition
10's deg

Wind Spd Definition
km/h
Visibility Definition
km
Stn Press Definition
kPa
Hmdx Definition


Wind Chill Definition


Weather Definition


TIME
00:00 12.7 11.9 95   0 14.5 99.59     LegendNANA
01:00 12.5 12.1 97 27 6 14.5 99.60     LegendNANA
02:00 10.7 10.6 99 22 4 8.0 99.57     LegendNANA
03:00 10.9 10.9 100 27 6 9.7 99.54     LegendNANA
04:00 11.1 11.1 100 22 7 11.3 99.58     LegendNANA
05:00 11.4 11.3 99 35 4 9.7 99.61     LegendNANA
06:00 10.3 10.3 100 28 4 0.0 99.63     LegendNANA
07:00 11.7 11.7 100 27 4 0.0 99.66     LegendNANA
08:00 13.1 13.1 100   0 0.3 99.64     LegendNANA
09:00 15.2 14.5 96   0 14.5 99.62     LegendNANA
10:00 17.3 14.6 84 5 7 14.5 99.56     LegendNANA
11:00 19.2 15.9 81 7 6 14.5 99.50     LegendNANA
12:00 21.2 15.3 69 8 7 14.5 99.43 25   LegendNANA
13:00 24.1 17.7 68 8 11 14.5 99.36 30   LegendNANA
14:00 25.5 18.5 65 7 11 14.5 99.28 32   LegendNANA
15:00 24.9 16.2 58 8 6 14.5 99.23 30   LegendNANA
16:00 24.0 15.3 58 12 9 14.5 99.21 28   LegendNANA
17:00 23.3 15.6 62 13 6 14.5 99.20 28   LegendNANA
18:00 22.4 15.7 66   0 14.5 99.21 27   LegendNANA
19:00 19.2 17.2 88   0 14.5 99.24     LegendNANA
20:00 18.4 16.4 88   0 14.5 99.26     LegendNANA
21:00 16.0 15.2 95   0 14.5 99.26     LegendNANA
22:00 15.4 14.9 97   0 11.3 99.29     LegendNANA
23:00 14.4 13.7 96 29 4 2.3 99.31     LegendNANA

Notes on Data Quality.

Legend

  • E = Estimated
  • M = Missing
  • NA = Not Available
  • ‡ = Partner data that is not subject to review by the National Climate Archives
Date modified: